map of GRJ home
GRJ - Airport
Location
City:  George, Western Cape, South Africa
ICAO:FAGG
IATA:GRJ

Details
Type:Airport (Aerodrome, Airfield)
Use:Public/Civil
Latitude:3400'20"S (-34.005552)
Longitude:2222'44"E (22.378889)
Datum:WGS 1984
Elevation:648 ft (198 m)
Variation:27.03W (WMM2015 magnetic declination)
-0.15 annual change
Runways:2
Longest:6562 × 148 ft (2000 × 45 m), paved

Time
Time Zone:UTC+2
Local Time:

Weather
METAR:FAGG 220400Z 33003KT CAVOK 11/10 Q1017
TAF:FAGG 220400Z 2206/2306 VRB05KT CAVOK
BECMG 2222/2224 01006KT TX24/2212Z TN13/2305Z

Related Locations
Nearby:
Farthest:HPV: 11610 mi / 18685 km
Hanalei [Princeville Airport], Kauai, HI, US

Find:

   beyond  
but within

Other Information
Maps:
NOTAMs:
Links:
Sources:

  
flag of South Africa
flag of Western Cape
  

Sectional Chart

Flight Planning
at skyvector.com

Satellite Image

Google Maps Satellite view

 

Copyright © 2004-2018 Karl L. Swartz. All rights reserved.
The Great Circle Mapper name and logo are trademarks of the Great Circle Mapper.
All other trademarks mentioned herein belong to their respective owners.
Please see credits for attibutions and further copyright information.

  Follow gcmap on Facebook Follow gcmap on Twitter Follow gcmap on Google+ GCmap on LinkedIn

hCard Microformat

Geo Microformat